Regional Weather Roundup
Issued by NWS

Home | Current Version | Previous Version | Graphics & Text | Print | Product List | Glossary On
Versions: 1 2 3 4 5 6 7 8 9 10 11 12 13 14 15 16 17 18 19 20 21 22 23 24 25 26 27 28 29 30 31 32 33 34 35 36 37 38 39 40 41 42 43 44 45 46 47 48 49 50
000
ASUS43 KMKX 050211
RWRWI

WISCONSIN REGIONAL WEATHER ROUNDUP
NATIONAL WEATHER SERVICE MILWAUKEE/SULLIVAN WI
900 PM CDT WED MAY 04 2016

NOTE: "FAIR" INDICATES FEW OR NO CLOUDS BELOW 12,000 FEET WITH NO
SIGNIFICANT WEATHER AND/OR OBSTRUCTIONS TO VISIBILITY.

WIZ001-002-006>008-014>016-023>028-050300-
NORTHWEST WISCONSIN

CITY           SKY/WX    TMP DP  RH WIND       PRES   REMARKS
SUPERIOR ARPT  CLEAR     40  31  68 E5        30.00R
ASHLAND        CLEAR     37  34  89 N6        30.00S WCI  32
HAYWARD        CLEAR     47  27  45 NE3       29.99R
SIREN          CLEAR     54  21  27 CALM      29.97R
CUMBERLAND     CLEAR     52  19  28 NE3       29.97R
RICE LAKE      CLEAR     51  28  40 NE5       29.98R
CHETEK         CLEAR     52  28  40 NE3       29.97R
LADYSMITH      CLEAR     46  29  52 N6        30.00R
EAU CLAIRE     CLEAR     52  22  30 NE7       29.96R
MENOMONIE      CLEAR     54  20  25 NE7       29.96R
NEW RICHMOND   CLEAR     51  29  43 CALM      29.97R
OSCEOLA        CLEAR     56  23  27 NE3       29.99R
$$

WIZ003>005-009-010-017-018-050300-
NORTH CENTRAL WISCONSIN

CITY           SKY/WX    TMP DP  RH WIND       PRES   REMARKS
MANITOWISH WTR CLEAR     43  32  65 CALM      29.97S
ARBOR VITAE    CLEAR     42  31  65 CALM      29.97S
WOODRUFF       CLEAR     42  31  65 CALM      29.97S
RHINELANDER    CLEAR     43  30  60 N5        29.97R
EAGLE RIVER    CLEAR     40  29  65 CALM      29.96S
LAND O LAKES   CLEAR     36  31  81 CALM      29.97S
PHILLIPS       CLEAR     45  31  57 N7        29.97R
TOMAHAWK       CLEAR     43  31  62 N3        29.97S
MEDFORD        CLEAR     44  31  60 N5        29.96R
MERRILL        CLEAR    N/A N/A N/A N9G17     29.96R
$$

WIZ029-030-035-036-043>047-050300-
CENTRAL WISCONSIN

CITY           SKY/WX    TMP DP  RH WIND       PRES   REMARKS
WAUSAU         CLEAR     48  31  51 N7        29.94R
MOSINEE        CLEAR     46  30  53 N8        29.96R
MARSHFIELD     CLEAR     49  31  49 NE8       29.94R
STEVENS POINT  CLEAR     46  31  56 N8        29.95R
WAUPACA        CLEAR     50  32  49 N8        29.93R
WAUTOMA        CLEAR     50  32  50 MISG      29.93
WISC RAPIDS    CLEAR     49  29  46 N13       29.95R
CAMP DOUGLAS   PTCLDY    52  32  46 NE7       29.93R
$$

WIZ011>013-019>022-031-037>040-048>050-050300-
NORTHEAST WISCONSIN

CITY           SKY/WX    TMP DP  RH WIND       PRES   REMARKS
ANTIGO         CLEAR     41  32  70 N12       29.95R
SHAWANO        CLEAR     47  34  60 NE14      29.95R
OCONTO         PTCLDY    42  32  68 N8        29.95R
STURGEON BAY   CLEAR     41  30  65 N18       29.96R
GREEN BAY      PTCLDY    45  33  63 N16       29.94R
MANITOWOC      CLEAR     43  34  70 VRB7      29.93R
APPLETON       PTCLDY    45  32  61 NE13      29.91R
CLINTONVILLE   CLEAR     46  32  57 NE9       29.94R
OSHKOSH        PTCLDY    47  34  60 N14       29.91R
$$

WIZ032>034-041-042-053>061-050300-
SOUTHWEST WISCONSIN

CITY           SKY/WX    TMP DP  RH WIND       PRES   REMARKS
LA CROSSE      CLEAR     58  23  26 NE12      29.93R
SPARTA         CLEAR     51  24  35 NE7       29.95R
VIROQUA        CLEAR     48  24  39 N9        29.92R
BOSCOBEL       CLEAR     57  21  24 NE8G16    29.91R
PRAIRIE DU CHI CLEAR     58  19  22 N5        29.90R
PLATTEVILLE    CLEAR     51  32  48 N12       29.90R
$$

WIZ056-057-062-063-064-067-068-050300-
SOUTH CENTRAL WISCONSIN

CITY           SKY/WX    TMP DP  RH WIND       PRES   REMARKS
REEDSBURG      CLEAR     52  32  46 N12G20    29.91R
BARABOO/DELLS  CLEAR     51  30  45 N8        29.91R
LONE ROCK      CLEAR     56  25  30 N12       29.91R
MINERAL POINT  CLEAR     54  21  28 N10       29.89R
MADISON        PTCLDY    48  34  58 N9        29.89R
MIDDLETON      CLEAR     49  37  62 NE7       29.90R
WATERTOWN      MOCLDY    47  37  68 NE9       29.89R
MONROE         CLEAR     50  36  57 NE14G22   29.88R
JANESVILLE     PTCLDY    52  36  54 NE9       29.87R
$$

WIZ051-052-058>065-066-070>072-050300-
SOUTHEAST WISCONSIN

CITY           SKY/WX    TMP DP  RH WIND       PRES   REMARKS
MILWAUKEE      PTCLDY    41  34  76 N20G25    29.89R
WAUKESHA       MOCLDY    41  36  81 NE6       29.90R
MILWAUKEE/TIMM CLEAR     41  32  70 N7        29.90R
RACINE         CLEAR     41  34  76 N16       29.90R
BURLINGTON     MOCLDY    42  34  74 NE6       29.89R
KENOSHA        CLEAR     41  34  76 N10       29.88R
FOND DU LAC    MOCLDY    47  36  65 NE15      29.91R
SHEBOYGAN      CLEAR     37  33  85 NE8       29.91R WCI  31
WEST BEND      CLEAR     41  34  75 NE5       29.90R
JUNEAU         CLOUDY    46  35  66 N9        29.91R
$$

LSZ147-162-050300-
LAKE SUPERIOR

STATION/POSITION TIME  TEMP    WIND        PRES    WAVE
                       AIR SEA DIR/SP/G            HT/PER
                 (UTC) (F)     (DEG/KT/KT) (MB)    (FT/S)
W MID LAKE BUOY  0150   37 37   30/  2/  2 1017.2R   1/ 4
DEVILS ISLAND    0200   42     140/  5/  5 1016.9R
SAXON HARBOR     0140   41      CALM  /  2 1015.2F
$$

LMZ867-665-643>646-050300-
LAKE MICHIGAN

STATION/POSITION TIME  TEMP    WIND        PRES    WAVE
                       AIR SEA DIR/SP/G            HT/PER
                 (UTC) (F)     (DEG/KT/KT) (MB)    (FT/S)
CHAMBERS ISLAND  0140   42     330/ 18/ 23 1014.2R
N MID LAKE BUOY  0150   40 38  340/ 17/ 21 1012.9R   3/ 5
NORTHPORT PIER   0120   41     330/ 17/ 24 1013.5R
ALGOMA LAKESHORE 0100           20/ 12/ 15   N/A
KEWAUNEE LAKESHO 0100                      1012.1R
SHEBOYGAN LAKESH 0200   41      20/ 20/ 23 1013.6R
PORT WASHINGTON  0100   43      30/  9/ 14 1012.9R
S MID LAKE BUOY  0150   41 40   10/ 27/ 33 1009.6R   9/ 8
KENOSHA   LAKESH 0200   43      10/ 23/ 26 1011.9R
$$

TC  - TEMPERATURE IN CELSIUS
VSB - VISIBILITY IN STATUTE MILES
WCI - WIND CHILL INDEX
HX  - HEAT INDEX





USA.gov is the U.S. government's official web portal to all federal, state and local government web resources and services.